Location: Unspecified
(0.0000°N, 0.0000°E)
Time: 18:55:33
(UTC+00:00)

N. Korean satellite - Pass Details

Date: 24 June 2022
Orbit: 433 x 477 km, 97.3° (Epoch: 27 June)

Event Time Altitude Azimuth Distance (km) Brightness Sun altitude
Rises 04:39:52 0° 17° (NNE) 2,398 10.7 -18.9°
Reaches altitude 10° 04:41:53 10° 21° (NNE) 1,537 9.7 -18.4°
Maximum altitude 04:45:07 59° 101° (E) 512 6.8 -17.7°
Enters shadow 04:47:42 16° 179° (S) 1,265 8.4 -17.1°
